Location: Newark
(13.0328°N, 9.6142°E)
Time: 03:53:16
(UTC+00:00)

ISS - Visible Passes

Search period start: 20 October 2019 00:00
Search period end: 30 October 2019 00:00
Orbit: 411 x 421 km, 51.6° (Epoch: 20 October)

Date Brightness Start Highest point End Pass type
(mag) Time Alt. Az. Time Alt. Az. Time Alt. Az.
20 Oct -3.2 04:42:29 10° SSW 04:45:48 62° SE 04:49:07 10° NE visible
21 Oct -1.5 03:54:28 10° S 03:57:19 25° SE 04:00:08 10° ENE visible
22 Oct -0.4 03:08:53 11° ESE 03:08:53 11° ESE 03:10:01 10° ESE visible
22 Oct -2.6 04:42:29 10° WSW 04:45:18 25° NW 04:48:07 10° N visible
23 Oct -3.6 03:57:06 53° NNW 03:57:06 53° NNW 04:00:02 10° NNE visible
